sat.trackr.live / text

‹ back to catalog

STARLINK-2460

NORAD 48120 · 2021-027AE

PAYLOAD ACTIVE UNKNOWN

§ Identity

Operator
Country
US
Launch date
2021-04-07
Launch site
AFETR
Launch vehicle
Mass (kg)
RCS (m²)

Purposes: comms

External: N2YO · Heavens-Above · Gunter

§ Orbital elements

Epoch: 2026-09-20T04:30:16.243200Z

Period
92.73 min
Inclination
53.1583°
Eccentricity
0.0002083
Mean motion
15.52915437 rev/d
Perigee alt
406.8 km
Apogee alt
409.6 km
Semi-major
6,786.4 km
B*
3.4344e-4
RAAN
329.4081°
Arg perigee
37.8579°
Mean anomaly
322.2578°
Rev number
30,247

§ Raw data

STARLINK-24601 48120U 21027AE  26263.18768800  .00021314  00000+0  34344-3 0  99952 48120  53.1583 329.4081 0002083  37.8579 322.2578 15.52915437302478

JSON: /api/v1/satellites/48120 · /tle

For live sub-satellite position, see the globe view (requires WebGL).

§ Visibility from observer

Set your observer location to see the next 7 days of passes ≥ 10°. The values pass through the URL so the page stays shareable.

No JS? Fill the form by hand. The geolocation button needs JavaScript.